Preview of NWS' New Version of Forecast
This preview is not operational and should not be used for support decisions.

Regional Weather Roundup (RWR)

Issued by Philadelphia/Mt Holly (PHI)

                            
000
ASUS41 KPHI 241712
RWRPHI

REGIONAL WEATHER ROUNDUP
NATIONAL WEATHER SERVICE MOUNT HOLLY NJ
100 PM EDT FRI MAY 24 2019

NOTE:  "FAIR" INDICATES FEW OR NO CLOUDS BELOW 12,000 FEET WITH NO
SIGNIFICANT WEATHER AND/OR OBSTRUCTIONS TO VISIBILITY.

 * = STATION DOES NOT REPORT PRECIPITATION (E.G. RAIN, SNOW, ETC.) 
        OR FOG.

NJZ015>026-241800-
SOUTHERN NEW JERSEY
  
CITY           SKY/WX    TMP DP  RH WIND       PRES   REMARKS
POMONA         FAIR      78  51  38 NW26G35   29.93F                  
WILDWOOD*      FAIR      77  55  46 NW16G25   29.97F                  
MILLVILLE      FAIR      78  51  38 NW15G24   29.96R                  
WRIGHTSTOWN    FAIR      75  51  41 NW18G29   29.92S                  
MOUNT HOLLY    FAIR      75  52  44 NW15G25   29.96R                  
TRENTON        CLOUDY    73  51  46 NW10      29.96R                  

$$
NJZ001>014-241800-
NORTHERN NEW JERSEY
  
CITY           SKY/WX    TMP DP  RH WIND       PRES   REMARKS
SUSSEX         PTSUNNY   68  52  56 NW15G26   29.99R                  
ANDOVER*         N/A     69  51  52 NW8       29.98R                  
MORRISTOWN     MOSUNNY   72  55  56 NW15G32   29.95R                  
NEWARK         FAIR      77  49  37 NW29G37   29.92R                  
TETERBORO      FAIR      74  51  44 N21G30    29.91R                  
CALDWELL       FAIR      75  51  43 NW14G28   29.93R                  
SOMERVILLE     CLOUDY    72  50  45 NW20G28   29.95                   
ALLAIRE*       PTSUNNY   76  50  40 NW23G33   29.93R                  
TOMS RIVER*    FAIR      75  51  43 NW18G35   29.93R                  

$$
PAZ043-044-047-054-055-060>062-066>071-241800-
EASTERN PENNSYLVANIA
  
CITY           SKY/WX    TMP DP  RH WIND       PRES   REMARKS
PHILADELPHIA   FAIR      77  48  35 NW22G30   29.98R                  
NORTH PHILA    FAIR      78  50  37 NW14G28   29.98R                  
BLUE BELL*     FAIR      73  50  44 W9G20     29.99R                  
DOYLESTOWN     FAIR      76  52  43 NW12G25   29.97R                  
QUAKERTOWN*    MOSUNNY   73  52  46 NW9G16    29.99S                  
PERKASIE*      FAIR      73  52  46 NW14G24   30.00S                  
POTTSTOWN      FAIR      73  50  44 NW17G28   30.00S                  
LANCASTER      FAIR      76  53  44 NW16G25   30.01R                  
COATESVILLE    FAIR      73  50  43 NW24      30.02S                  
WEST CHESTER   FAIR      73  46  38 NW12G24   30.00S                  
READING        FAIR      75  53  46 NW17G29   29.99S                  
ALLENTOWN      FAIR      77  51  40 NW12G24   29.99R                  
QN CITY/ALNTWN PTSUNNY   73  54  49 NW13G23   30.00S                  
MOUNT POCONO   PTSUNNY   62  50  64 NW18G33   30.02R                  
HAZLETON       FAIR      68  46  45 NW13G23   30.06R                  
LEHIGHTON      FAIR      72  46  40 N9G18     30.00S                  
WILKES BARRE   CLOUDY    66  51  58 N13G22    30.04R                  

$$
DEZALL-MDZ008-012-015-019-020-241800-
DELAWARE AND EASTERN MARYLAND
  
CITY           SKY/WX    TMP DP  RH WIND       PRES   REMARKS
WILMINGTON     FAIR      78  51  38 NW22G31   29.99R                  
DOVER          FAIR      78  49  36 NW20G28   29.98R                  
CHESWOLD         N/A     77  50  38 NW16G24   29.99S                  
GEORGETOWN     FAIR      79  51  37 NW16G25   29.99R                  
EASTON         SUNNY     81  52  36 W22G28    30.05S                  
STEVENSVILLE   FAIR      77  55  47 NW15G23   30.02R                  
ABERDEEN       MOSUNNY   79  52  38 NW17        N/A                   
PATUXENT       FAIR      81  55  40 NW21      30.02R                  
OCEAN CITY     FAIR      80  53  39 NW17G26   29.98R                  
WALLOPS ISLAND FAIR      82  55  39 NW21G33   29.99S                  
CAMBRIDGE      SUNNY     77  55  47 NW15G23   30.02R                  
SALISBURY      FAIR      80  53  39 W14G30    29.99R                  

$$
PAZ001-021-NYZ056-072-MDZ011-DCZ001-241800-
OTHER NEARBY LOCATIONS
  
CITY           SKY/WX    TMP DP  RH WIND       PRES   REMARKS
HARRISBURG     FAIR      76  53  44 NW17G24   30.01F                  
STATE COLLEGE  MOSUNNY   72  48  43 NW14G24   30.08S                  
WILLIAMSPORT   FAIR      77  47  34 W14       30.00F                  
BINGHAMTON     CLOUDY    55  49  80 NW14G22   30.06R                  
NEW YORK CITY  PTSUNNY   71  50  47 NW12G25   29.94R                  
BALTIMORE      FAIR      79  52  38 NW14G25   30.01F                  
WASHINGTON DC  FAIR      79  52  38 NW16G24   30.05S                  

$$